LFKCLFKF

Guest
Details From LFKC - St Catherine
To LFKF - Figari Sud Corse
Flight Number -
Tags generated
Created
Modified
Stats Distance 64 nm / 118 km
Max Altitude 8,400 ft / 2,560 m
Waypoints 3
Social Downloads 6
Likes 0
Share VATSIM

Download

Looking for another format? Having issues loading an existing format? Contact us
Advertisement - Login to hide

Notes

Basic altitude profile: - Ascent Rate: 2500ft/min - Ascent Speed: 250kts - Cruise Altitude: 35000ft - Cruise Speed: 420kts - Descent Rate: 1500ft/min - Descent Speed: 250kts Options: - Use NATs: yes - Use PACOTS: yes - Use low airways: yes - Use high airways: yes

Route

LFKC VICCO LFKF

ID Type Via Altitude Latitude Longitude Leg Dist Tot Dist Heading (true) Name
O LFKC APT - 0 ft / 0 m 42.53076˚ 8.79292˚ - 0 nm - St Catherine
VICCO FIX - 8,400 ft / 2,560 m 42.13944˚ 8.81583˚ 23 nm 23 nm 178° / 178° -
O LFKF APT - 0 ft / 0 m 41.50206˚ 9.09696˚ 40 nm 63 nm 162° / 162° Figari Sud Corse

Altitude Profile

Advertisement - Login to hide

LFKC

Details ICAO LFKC (CLY)
Name St Catherine
Region France
Timezone Europe/Paris (UTC+1.0)
Stats Elevation 208 ft / 63 m (AMSL)
Location 42.530762° 8.792925°
Runways 1
Magnetic Variation 2.342° E

METAR

LFKC 151600Z AUTO 21013KT 9999 -RA SCT034 BKN042 BKN068 11/07 Q0999 TEMPO SHRA SCT015 BKN025 FEW030TCU BECMG 24015G25KT

Decode

TAF

TAF LFKC 151400Z 1515/1615 24015G25KT 9999 SCT030 BKN040 BKN080 TEMPO 1515/1615 SHRA SCT015 BKN025 FEW030TCU BECMG 1611/1612 34010G20KT TX12/1515Z TN09/1606Z

Decode

Departure Runways

ID Width Length Bearing (true) Bearing (mag) Surface Threshold Offset Overrun Length
18 131 ft / 40 m 7,596 ft / 2,315 m 179.60° 177.26° Concrete 0 ft / 0 m 0 ft / 0 m
36 131 ft / 40 m 7,596 ft / 2,315 m 359.60° 357.26° Concrete 656 ft / 200 m 0 ft / 0 m

LFKF

Details ICAO LFKF (FSC)
Name Figari Sud Corse
Region France
Timezone Europe/Paris (UTC+1.0)
Stats Elevation 87 ft / 27 m (AMSL)
Location 41.502064° 9.096960°
Runways 1
Magnetic Variation 2.378° E

METAR

LFKF 151600Z AUTO 28013KT 9999 FEW030 SCT036 BKN100 12/08 Q1000 BECMG 25015G25KT

Decode

TAF

TAF LFKF 151400Z 1515/1615 25015G25KT 9999 BKN020 BKN040 TEMPO 1600/1609 27020G35KT SHRA FEW040TCU

Decode

Destination Runways

ID Width Length Bearing (true) Bearing (mag) Surface Threshold Offset Overrun Length
05 148 ft / 45 m 8,131 ft / 2,478 m 47.42° 45.04° Asphalt 0 ft / 0 m 0 ft / 0 m
23 148 ft / 45 m 8,131 ft / 2,478 m 227.44° 225.06° Asphalt 0 ft / 0 m 0 ft / 0 m

Approach Navaids

Runway Type Ident Frequency Range Bearing (true) Bearing (mag) Slope Elevation
23 Localiser GR 110.50 MHz 27 nm / 50 km 229.00° 226.62° - 87 ft / 27 m (AMSL)
23 Glidescope GR 110.50 MHz 27 nm / 50 km 229.00° 226.62° 3.50° 87 ft / 27 m (AMSL)
23 DME GR 110.50 MHz 18 nm / 33 km - - - 131 ft / 40 m (AMSL)

Popular Alternatives